{"data":{"norad_id":61556,"epoch":"2026-05-25T04:16:39.712224Z","epoch_age_seconds":59947,"freshness":"FRESH","line1":"1 61556U 24185E   26145.17823741  .00000463  00000+0  22542-3 0  9994","line2":"2 61556  88.9843  58.9329 0008744 134.4784 225.7121 14.16482159 92883","mean_motion":14.16482159,"eccentricity":0.0008744,"inclination_deg":88.9843,"raan_deg":58.9329,"arg_perigee_deg":134.4784,"mean_anomaly_deg":225.7121,"bstar":0.00022542,"rev_number":9288,"period_min":101.66029913265,"perigee_km":830.96530847678,"apogee_km":843.58362004548,"semimajor_km":7215.4114642611,"source":"CELESTRAK","updated_at":"2026-05-25T13:38:02.413383Z"}}